Weather History for Volk, WI

Change the Weather History Date:

Monday, September 22, 2014

  Actual Average Record
Temperature  
Mean Temperature 50 °F -  
Max Temperature 68 °F 65 °F 84 °F (2005)
Min Temperature 32 °F 47 °F 30 °F (2013)
Degree Days  
Heating Degree Days 15    
Moisture  
Dew Point 40 °F    
Average Humidity 94    
Maximum Humidity 100    
Minimum Humidity 56    
Precipitation  
Precipitation 0.00 in - - ()
Sea Level Pressure  
Sea Level Pressure 30.22 in    
Wind  
Wind Speed 2 mph (West)    
Max Wind Speed 13 mph    
Max Gust Speed 17 mph    
Visibility 5 miles    
Events Fog    
Averages and records for this station are not official NWS values.
T = Trace of Precipitation, MM = Missing Value Source: NWS Daily Summary

Daily Weather History Graph

Daily Weather History Graph

Search for Another Location

Airport:

Trip Planner

Search our weather history database for the weather conditions in past years. The results will help you decide how hot, cold, wet, or windy it might be!

Date:

Astronomy

Sep. 22, 2014 Rise Set
Actual Time 6:48 AM CDT 6:58 PM CDT
Civil Twilight 6:19 AM CDT 7:27 PM CDT
Nautical Twilight 5:45 AM CDT 8:00 PM CDT
Astronomical Twilight 5:11 AM CDT 8:35 PM CDT
Moon 5:14 AM CDT (9/22) 6:07 PM CDT (9/22)
Length of Visible Light 13h 07m
Length of Day
12h 10m
Waning Crescent, 2% of the Moon is Illuminated
Sep 22
Waning Crescent
Sep 24
New
Oct 1
First Quarter
Oct 8
Full
Oct 15
Last Quarter

Hourly Weather History & Observations

Time (CDT) Temp. Windchill Dew Point Humidity Pressure Visibility Wind Dir Wind Speed Gust Speed Precip Events Conditions
12:03 AM 39.2 °F 37.0 °F 39.2 °F 100% 30.20 in 5.0 mi West 3.5 mph - N/A   Clear
12:08 AM 37.4 °F - 37.4 °F 100% 30.20 in 2.0 mi West 2.3 mph - N/A   Clear
12:13 AM 37.4 °F - 37.4 °F 100% 30.21 in 1.5 mi NW 2.3 mph - N/A   Clear
12:18 AM 37.4 °F - 37.4 °F 100% 30.20 in 2.0 mi WNW 2.3 mph - N/A   Clear
12:23 AM 37.4 °F - 37.4 °F 100% 30.20 in 4.0 mi WNW 2.3 mph - N/A   Clear
12:28 AM 37.4 °F - 37.4 °F 100% 30.21 in 5.0 mi NW 2.3 mph - N/A   Clear
12:33 AM 37.4 °F - 37.4 °F 100% 30.20 in 4.0 mi Calm Calm - N/A   Clear
12:48 AM 37.4 °F - 37.4 °F 100% 30.20 in 6.0 mi Calm Calm - N/A   Clear
12:53 AM 37.4 °F - 37.4 °F 100% 30.20 in 10.0 mi Calm Calm - N/A   Clear
12:58 AM 37.4 °F - 37.4 °F 100% 30.22 in 8.0 mi Calm Calm - N/A   Clear
1:08 AM 37.4 °F - 37.4 °F 100% 30.21 in 2.5 mi West 2.3 mph - N/A   Clear
1:13 AM 37.4 °F 34.9 °F 37.4 °F 100% 30.20 in 1.0 mi West 3.5 mph - N/A   Clear
1:18 AM 35.6 °F 31.7 °F 35.6 °F 100% 30.21 in 0.8 mi WNW 4.6 mph - N/A   Clear
1:38 AM 33.8 °F - 33.8 °F 100% 30.20 in 0.5 mi WNW 1.2 mph - N/A Fog Fog
1:48 AM 35.6 °F - 35.6 °F 100% 30.20 in 0.8 mi Calm Calm - N/A   Clear
1:53 AM 37.4 °F - 37.4 °F 100% 30.20 in 1.0 mi Calm Calm - N/A   Clear
1:58 AM 37.4 °F - 37.4 °F 100% 30.22 in 0.8 mi WNW 2.3 mph - N/A   Clear
2:03 AM 37.4 °F 34.9 °F 37.4 °F 100% 30.20 in 0.5 mi WNW 3.5 mph - N/A Fog Fog
2:13 AM 35.6 °F 32.8 °F 35.6 °F 100% 30.20 in 0.8 mi WNW 3.5 mph - N/A   Clear
2:23 AM 35.6 °F 32.8 °F 35.6 °F 100% 30.20 in 0.5 mi WNW 3.5 mph - N/A Fog Fog
2:43 AM 35.6 °F - 35.6 °F 100% 30.20 in 0.8 mi Calm Calm - N/A   Clear
2:48 AM 37.4 °F - 37.4 °F 100% 30.20 in 1.0 mi Calm Calm - N/A   Clear
2:53 AM 37.4 °F - 37.4 °F 100% 30.20 in 1.5 mi Calm Calm - N/A   Clear
2:58 AM 35.6 °F - 35.6 °F 100% 30.22 in 3.0 mi West 1.2 mph - N/A   Clear
3:03 AM 35.6 °F - 35.6 °F 100% 30.21 in 1.0 mi WNW 2.3 mph - N/A   Clear
3:13 AM 35.6 °F - 35.6 °F 100% 30.21 in 1.2 mi West 2.3 mph - N/A   Clear
3:18 AM 35.6 °F 32.8 °F 35.6 °F 100% 30.21 in 1.0 mi WNW 3.5 mph - N/A   Clear
3:23 AM 35.6 °F 32.8 °F 35.6 °F 100% 30.21 in 0.8 mi WNW 3.5 mph - N/A   Clear
3:28 AM 33.8 °F - 33.8 °F 100% 30.21 in 0.5 mi NW 2.3 mph - N/A Fog Fog
3:33 AM 33.8 °F - 33.8 °F 100% 30.22 in 0.8 mi NW 2.3 mph - N/A   Clear
3:58 AM 34.0 °F - 34.0 °F 100% 30.23 in 1.0 mi Calm Calm - N/A   Clear
4:03 AM 35.6 °F - 35.6 °F 100% 30.21 in 2.0 mi Calm Calm - N/A   Clear
4:08 AM 35.6 °F - 35.6 °F 100% 30.22 in 10.0 mi Calm Calm - N/A   Clear
4:43 AM 33.8 °F - 33.8 °F 100% 30.22 in 6.0 mi ESE 2.3 mph - N/A   Clear
4:53 AM 33.8 °F - 33.8 °F 100% 30.22 in 10.0 mi Calm Calm - N/A   Clear
4:58 AM 34.3 °F - 34.3 °F 100% 30.25 in 10.0 mi Calm Calm - N/A   Clear
5:18 AM 32.0 °F - 32.0 °F 100% 30.23 in 7.0 mi Calm Calm - N/A   Clear
5:33 AM 32.0 °F - 32.0 °F 100% 30.24 in 1.8 mi Calm Calm - N/A   Clear
5:38 AM 32.0 °F - 32.0 °F 100% 30.24 in 1.5 mi Calm Calm - N/A   Clear
5:43 AM 33.8 °F - 33.8 °F 100% 30.24 in 4.0 mi Calm Calm - N/A   Clear
5:48 AM 35.6 °F - 35.6 °F 100% 30.24 in 10.0 mi Calm Calm - N/A   Clear
5:58 AM 34.5 °F - 34.5 °F 100% 30.27 in 10.0 mi SE 2.3 mph - N/A   Clear
6:58 AM 33.8 °F - 33.8 °F 100% 30.28 in 10.0 mi Calm Calm - N/A Fog Patches of Fog
7:58 AM 37.4 °F - 37.4 °F 100% 30.29 in 10.0 mi SE 2.3 mph - N/A   Clear
8:58 AM 51.8 °F - 51.8 °F 100% 30.27 in 10.0 mi Calm Calm - N/A   Clear
9:58 AM 59.0 °F - 51.8 °F 77% 30.29 in 10.0 mi WSW 4.6 mph - N/A   Clear
10:58 AM 62.6 °F - 51.8 °F 68% 30.30 in 10.0 mi West 10.4 mph - N/A   Partly Cloudy
11:58 AM 66.2 °F - 50.0 °F 56% 30.28 in 10.0 mi West 12.7 mph 17.3 mph N/A   Scattered Clouds
12:58 PM 66.2 °F - 50.0 °F 56% 30.27 in 10.0 mi WNW 11.5 mph - N/A   Scattered Clouds
1:58 PM 64.4 °F - 51.8 °F 64% 30.26 in 10.0 mi West 8.1 mph - N/A   Mostly Cloudy
2:58 PM 66.2 °F - 51.8 °F 60% 30.24 in 10.0 mi West 10.4 mph - N/A   Scattered Clouds
3:58 PM 68.0 °F - 51.8 °F 56% 30.22 in 10.0 mi West 11.5 mph - N/A   Scattered Clouds
4:58 PM 68.0 °F - 51.8 °F 56% 30.21 in 10.0 mi West 9.2 mph - N/A   Partly Cloudy
5:58 PM 66.2 °F - 53.6 °F 64% 30.21 in 10.0 mi West 6.9 mph - N/A   Partly Cloudy
6:58 PM 60.8 °F - 55.4 °F 82% 30.22 in 10.0 mi Calm Calm - N/A   Clear
7:58 PM 50.0 °F - 50.0 °F 100% 30.23 in 10.0 mi Calm Calm - N/A   Clear
8:58 PM 48.2 °F - 48.2 °F 100% 30.23 in 10.0 mi ESE 1.2 mph - N/A   Clear
9:58 PM 46.4 °F - 46.4 °F 100% 30.24 in 10.0 mi ESE 2.3 mph - N/A   Clear
10:58 PM 44.6 °F - 44.6 °F 100% 30.25 in 7.0 mi ESE 1.2 mph - N/A   Clear
11:45 PM 42.8 °F - 42.8 °F 100% 30.22 in 1.0 mi East 1.2 mph - N/A   Clear
11:50 PM 41.0 °F - 41.0 °F 100% 30.22 in 0.8 mi SE 2.3 mph - N/A   Clear
11:55 PM 42.8 °F - 42.8 °F 100% 30.22 in 2.0 mi SE 1.2 mph - N/A   Clear
11:58 PM 42.8 °F - 42.8 °F 100% 30.24 in 2.5 mi Calm Calm - N/A   Clear